NOAA 16 DEB

Satellite information

Favourite Embed

Satellite Type and Status

DEBRISIN ORBIT

Key statistics

Satellite NOAA 16 DEB at a glance.

Uptime

9056

Days in orbit

Revolutions

≈ 14.2

Per day

Orbit

SSO

Sun Synchronous Orbit

Inclination

98.7

Latest

Satellite identification and parameters

Extended collection of information and parameters for NOAA 16 DEB.

Object identification

Identified? True

Debris? True

Object name: NOAA 16 DEB

International designator: 2000-055HD

Object number (NORAD): 41301

Object ID (CCSDS): 41301

Country: UNITED STATES OF AMERICA (US)

Current information (Y/N): Y

RCS size: SMALL

Orbital parameters

Period: 101.213 minutes

Inclination: 98.7211 deg

SMA: 7194.208 km

Apoapsis: 833.152 km

Periapsis: 798.994 km

RAAN: 225.9164 deg

Eccentricy: 0.002374

Argument of periapsis: 104.7387 deg

Mean anomaly: 255.6424 deg

Mean motion: 14.22748981 rev/day

Mean motion (dot): 0.00003462 rev/day2

B* drag term: 0.0015591 1/REarth

Two-line elements (TLE)

Creation date: July 6, 2025, 6:05 p.m.

Reference frame: TEME

Reference center: EARTH

Epoch: July 6, 2025, 12:56 a.m. UTC

TLE line 0: 0 NOAA 16 DEB

TLE line 1: 1 41301U 00055HD 25187.03952861 .00003462 00000-0 15591-2 0 9994

TLE line 2: 2 41301 98.7211 225.9164 0023740 104.7387 255.6424 14.22748981490438

Live tracking on map

Real-time ground track for satellite NOAA 16 DEB.

In-orbit conjunctions

A list of the most updated potential collisions computed for object NOAA 16 DEB.

Target Orbit TCA Probability of collision Miss distance Type
CZ-6A DEB LEO 2025-04-04 10:57:26 0.0001884031 269.0 (m) DEBRIS
COSMOS 1275 DEB LEO 2025-03-11 01:43:34 0.0001088653 203.0 (m) DEBRIS
FENGYUN 1C DEB SSO 2024-11-11 04:02:01 0.0001790021 498.0 (m) DEBRIS

Associated space launch

The NOAA K, L and M POES satellites begin the fifth generation of improved environmental monitoring in support of NOAA missions. The instrument payload has significant improvements and additions/deletions. The instrument changes have effected the spacecraft subsystems and data formats.

NOAA 16 DEB was lifted into orbit during the mission ‘Titan II SLV | NOAA 16’, on board a Titan II SLV space rocket.

The launch took place on Sept. 21, 2000, 10:22 a.m. from Space Launch Complex 4W.

For more information about the launch, click the button.

Launch to space Titan II SLV | NOAA 16
Titan II SLV | NOAA 16

Agency: N/A

Status: Launch Successful

Launch date: Sept. 21, 2000, 10:22 a.m. UTC

Rocket: Titan II SLV

Launch pad: Space Launch Complex 4W

Location: Vandenberg SFB, CA, USA

...

Latest news about this satellite

There are no fresh news available about this satellite. Check back as we update our databases every day.


Newsletter sign-up

Weekly statistics, charts and insights to help you stay on top of the space industry.